Temperature
-11 -11 -12 -12 -12 -13 -13 -13 -13 -12 -12 -11 -10 -9 -8 -8 -7 -7 -7 -6 -5 -3 -2 -1 -0 0 1 2 2 3 4 4 5 6 6 7 9 9 9 9 9 9 10
-11 -12 -12 -12 -13 -13 -13 -13 -13 -13 -12 -12 -11 -9 -9 -8 -8 -7 -7 -6 -6 -4 -3 -2 -1 -1 0 1 2 2 3 3 4 5 5 7 8 9 9 8 8 8 8
-12 -12 -12 -13 -13 -13 -14 -14 -13 -13 -13 -12 -11 -10 -9 -8 -8 -7 -7 -7 -6 -6 -5 -4 -3 -2 -1 -0 1 2 2 3 3 4 5 6 7 8 8 8 8 7 7
-12 -12 -13 -13 -14 -14 -14 -14 -14 -14 -13 -13 -12 -11 -11 -9 -8 -8 -8 -7 -7 -6 -6 -5 -4 -3 -2 -1 -0 1 2 2 3 3 4 5 7 7 7 7 7 6 6
-12 -12 -13 -13 -13 -14 -14 -14 -14 -14 -14 -13 -13 -12 -11 -10 -9 -8 -8 -8 -8 -7 -7 -6 -5 -4 -3 -2 -1 -0 1 2 2 3 4 4 5 6 6 6 6 6 6
-12 -13 -13 -13 -13 -14 -14 -14 -14 -14 -14 -14 -13 -13 -12 -11 -10 -9 -8 -9 -9 -8 -8 -7 -6 -5 -4 -3 -2 -1 -0 1 1 2 3 3 4 5 5 5 5 5 5
-12 -12 -13 -13 -13 -14 -14 -15 -15 -15 -14 -14 -14 -14 -13 -12 -11 -9 -9 -9 -9 -9 -8 -8 -7 -7 -5 -4 -3 -2 -1 -1 -0 0 1 2 3 4 4 5 5 5 4
-12 -13 -13 -13 -14 -14 -14 -15 -15 -15 -15 -15 -14 -14 -13 -12 -11 -10 -9 -9 -9 -9 -8 -8 -8 -8 -7 -6 -5 -4 -3 -3 -2 -1 -1 -0 1 2 3 4 4 4 4
-13 -13 -13 -14 -15 -15 -15 -15 -15 -15 -15 -15 -14 -14 -13 -13 -12 -10 -9 -9 -9 -9 -9 -8 -8 -8 -8 -7 -6 -6 -5 -5 -4 -3 -2 -2 -1 0 2 2 3 3 3
-12 -13 -13 -14 -15 -15 -15 -15 -15 -15 -15 -14 -14 -14 -13 -13 -12 -10 -10 -9 -9 -9 -9 -9 -9 -9 -9 -8 -8 -8 -7 -7 -6 -5 -4 -3 -2 -1 -0 1 1 2 3
-12 -12 -13 -14 -15 -15 -15 -15 -15 -15 -15 -14 -14 -14 -13 -13 -12 -11 -10 -10 -10 -10 -9 -10 -10 -10 -9 -9 -9 -9 -9 -9 -8 -7 -6 -5 -4 -3 -2 -1 -1 1 1
-12 -12 -13 -13 -14 -15 -15 -15 -15 -15 -15 -14 -14 -13 -13 -13 -12 -12 -11 -11 -10 -10 -10 -10 -10 -10 -10 -10 -10 -10 -10 -9 -9 -9 -8 -7 -7 -6 -5 -4 -3 -2 -1
-11 -12 -13 -13 -14 -15 -15 -15 -15 -15 -15 -14 -14 -13 -13 -13 -13 -12 -12 -11 -11 -11 -11 -11 -11 -11 -11 -11 -11 -11 -10 -10 -10 -10 -10 -9 -9 -9 -8 -7 -6 -5 -4
-12 -13 -13 -14 -14 -14 -14 -14 -14 -14 -14 -14 -14 -14 -13 -13 -13 -13 -13 -12 -12 -12 -12 -13 -13 -12 -12 -12 -12 -12 -12 -12 -11 -11 -11 -11 -10 -10 -9 -9 -8 -8 -7
-12 -13 -14 -14 -14 -14 -14 -14 -14 -14 -14 -14 -14 -14 -14 -13 -13 -13 -13 -13 -13 -13 -13 -13 -13 -13 -13 -13 -13 -13 -13 -13 -12 -12 -12 -12 -11 -10 -10 -9 -9 -9 -9
-12 -13 -14 -14 -14 -14 -14 -14 -14 -14 -14 -15 -15 -15 -14 -14 -14 -14 -14 -14 -14 -14 -14 -14 -14 -14 -15 -15 -15 -15 -14 -14 -14 -14 -13 -13 -12 -11 -11 -11 -10 -10 -9
-12 -13 -13 -14 -14 -14 -14 -14 -14 -14 -15 -15 -15 -15 -14 -14 -14 -14 -14 -14 -15 -14 -14 -15 -15 -15 -15 -15 -15 -15 -15 -15 -15 -15 -14 -14 -14 -13 -12 -12 -11 -11 -11
-12 -12 -13 -14 -14 -14 -14 -14 -14 -14 -14 -15 -15 -15 -15 -14 -14 -14 -14 -14 -14 -15 -15 -15 -15 -15 -15 -15 -16 -16 -16 -16 -16 -16 -15 -15 -15 -14 -14 -14 -13 -13 -12
-11 -12 -13 -13 -13 -14 -14 -14 -14 -14 -15 -15 -15 -15 -15 -15 -14 -15 -14 -15 -15 -15 -15 -15 -15 -15 -15 -15 -16 -16 -16 -16 -16 -16 -16 -15 -15 -15 -15 -15 -15 -14 -14
-11 -11 -12 -13 -13 -13 -14 -14 -15 -15 -15 -15 -15 -15 -15 -15 -15 -15 -15 -15 -15 -15 -15 -15 -15 -15 -15 -15 -15 -16 -16 -16 -16 -16 -16 -16 -16 -15 -15 -15 -15 -15 -15
-10 -11 -11 -12 -13 -13 -13 -14 -14 -15 -15 -15 -15 -15 -15 -15 -15 -15 -15 -15 -15 -15 -15 -15 -15 -15 -15 -15 -15 -16 -16 -16 -16 -16 -16 -16 -16 -15 -15 -15 -15 -15 -15
-9 -10 -11 -12 -13 -13 -13 -13 -13 -14 -15 -15 -15 -16 -15 -15 -15 -15 -15 -15 -15 -14 -14 -15 -15 -15 -15 -15 -15 -15 -15 -16 -16 -16 -15 -15 -15 -15 -15 -15 -15 -15 -15
-9 -9 -10 -11 -12 -12 -13 -13 -13 -13 -14 -15 -15 -15 -15 -15 -15 -15 -15 -15 -14 -14 -15 -15 -15 -15 -15 -15 -15 -15 -15 -15 -15 -15 -15 -15 -15 -15 -15 -15 -15 -15 -15
-9 -9 -9 -10 -11 -12 -12 -12 -12 -13 -13 -14 -14 -14 -14 -15 -15 -15 -15 -14 -14 -15 -15 -15 -15 -15 -15 -15 -15 -14 -14 -14 -14 -14 -14 -14 -14 -14 -14 -14 -14 -14 -14
-9 -9 -9 -10 -10 -11 -11 -11 -12 -12 -12 -13 -13 -13 -13 -14 -14 -14 -14 -14 -14 -14 -15 -15 -15 -15 -15 -14 -14 -14 -14 -14 -14 -14 -14 -14 -14 -14 -14 -14 -14 -14 -14
-9 -9 -9 -9 -10 -10 -10 -10 -11 -11 -11 -12 -12 -13 -13 -13 -13 -13 -13 -14 -14 -14 -14 -14 -14 -14 -14 -14 -14 -14 -14 -13 -13 -14 -14 -14 -14 -14 -14 -14 -14 -15 -15
Wind_Speed
18 18 18 17 18 18 17 19 19 20 21 21 21 20 20 19 18 16 16 17 17 16 14 11 9 9 8 9 11 12 12 12 14 10 7 7 10 10 9 8 10 10 12
17 17 17 17 18 18 19 19 20 20 20 20 20 20 20 20 19 17 17 17 16 16 16 14 13 11 11 8 9 11 12 12 13 13 9 8 10 12 11 11 9 8 10
17 17 17 18 19 19 19 19 20 20 20 20 19 20 20 20 20 17 15 15 15 15 15 15 14 14 13 9 9 9 10 10 11 11 10 8 6 9 12 11 12 10 10
16 17 17 18 18 19 19 19 19 19 20 20 20 19 19 20 19 17 12 13 14 14 14 14 14 15 14 11 7 7 6 9 10 10 9 9 8 9 12 13 12 10 10
16 16 17 17 18 18 18 19 19 19 19 19 19 20 20 18 18 21 10 11 13 14 14 14 14 18 21 16 10 6 4 2 3 6 8 8 8 11 12 11 14 12 10
16 16 17 17 17 18 18 18 19 19 19 19 19 19 20 17 27 30 17 11 11 13 13 14 14 16 19 22 24 23 19 9 5 2 3 7 7 7 7 11 14 14 8
16 16 16 17 17 18 18 18 18 18 18 18 19 19 19 21 28 30 24 13 11 12 13 13 12 14 17 14 19 24 25 28 22 11 10 7 6 6 4 10 11 12 8
16 16 16 17 17 18 18 17 17 16 16 16 18 19 19 20 27 29 25 11 10 11 12 13 13 15 15 15 14 16 17 20 21 16 14 14 13 10 8 5 8 10 8
16 17 17 17 18 18 18 17 16 16 16 16 16 18 18 19 25 29 20 8 8 10 11 13 14 15 21 20 15 15 16 15 20 26 27 26 29 28 18 7 5 8 5
18 18 18 18 18 18 18 17 16 15 15 16 16 16 17 17 23 26 20 7 8 8 9 12 18 20 22 22 16 15 15 14 14 17 20 22 21 23 25 16 8 5 5
18 19 19 18 17 17 16 16 15 14 15 15 15 15 15 17 21 25 22 10 8 7 7 9 13 22 23 23 20 15 16 13 13 14 14 15 15 15 16 15 14 10 7
18 18 18 18 16 14 15 15 14 14 14 13 14 14 13 15 18 21 24 19 12 7 6 8 13 21 23 23 19 19 20 15 11 11 12 13 12 12 12 14 16 17 15
18 18 17 17 16 15 15 15 13 12 11 11 11 11 12 13 14 20 21 21 20 12 10 16 18 19 18 17 21 22 18 12 11 12 12 11 10 10 10 10 12 14 16
18 18 16 16 16 16 13 12 12 12 12 11 9 9 11 12 11 12 13 12 15 13 11 13 17 18 16 16 16 14 12 12 11 11 10 10 9 9 10 8 7 7 9
18 16 16 15 15 15 14 12 12 11 12 12 9 8 9 10 12 18 15 12 10 9 8 8 10 10 10 10 10 11 11 11 11 11 10 10 10 10 10 9 8 8 8
16 16 14 14 14 13 13 13 15 14 16 15 13 11 9 11 14 16 17 17 16 14 10 9 9 9 9 9 9 9 9 10 9 9 9 9 9 9 9 8 8 8 8
16 15 14 14 14 14 13 13 13 13 13 12 13 12 11 11 12 14 13 14 15 13 10 9 8 8 8 7 7 7 7 7 7 7 8 8 7 7 7 7 7 7 7
15 15 15 13 14 13 13 13 11 11 10 8 9 10 11 11 10 10 10 8 8 9 8 7 7 7 6 6 6 6 5 5 5 6 6 6 6 6 6 6 6 6 5
13 12 13 13 13 13 13 12 11 11 9 8 7 7 8 8 6 7 7 6 6 6 6 6 6 6 5 5 5 5 5 4 4 4 4 4 4 4 4 4 4 5 4
11 16 16 13 12 12 12 12 11 11 10 8 7 6 6 5 4 4 4 5 5 5 5 5 5 5 5 5 4 4 4 4 3 3 3 3 3 3 3 3 3 3 2
10 12 17 13 12 12 11 11 11 10 10 8 7 8 9 5 4 5 5 5 5 5 5 5 5 5 5 4 4 4 4 4 3 3 3 3 2 3 2 2 3 3 3
9 10 11 11 12 12 11 10 10 10 10 9 7 7 8 5 5 5 5 5 5 5 5 5 5 5 5 4 4 5 5 4 4 4 4 3 4 4 4 4 4 4 4
9 10 10 11 11 13 12 10 9 9 9 9 8 7 6 5 5 5 6 6 6 6 6 6 6 6 6 5 6 6 5 5 5 5 5 5 5 5 5 6 6 6 6
9 10 11 11 11 11 11 10 9 9 9 8 8 7 7 6 6 6 6 6 6 7 8 8 8 8 9 8 7 7 8 9 9 9 10 8 8 7 7 7 8 8 8
8 9 10 11 11 11 10 10 9 9 8 8 8 8 8 7 7 7 7 7 8 8 9 10 9 9 10 11 11 10 11 13 14 13 11 10 9 9 8 8 8 8 8
9 9 10 11 11 12 11 10 10 9 8 8 8 8 8 8 8 8 8 8 8 8 9 10 11 11 12 12 13 13 14 15 14 11 7 6 6 7 7 7 9 8 9
Wind_Direction
341 340 339 339 338 337 335 334 332 330 331 331 330 328 328 330 327 324 330 334 334 331 330 324 317 302 282 265 254 245 239 236 242 243 231 214 198 190 184 185 160 149 141
339 338 339 339 340 340 339 336 335 334 334 333 332 331 333 333 331 325 335 341 341 341 342 346 348 339 320 298 273 253 242 232 233 230 210 203 200 187 176 166 149 138 135
337 338 339 341 342 341 339 337 338 337 337 337 335 334 335 333 331 327 335 346 345 346 347 350 349 347 340 321 297 268 248 235 228 224 204 191 185 173 165 153 141 133 131
336 337 339 340 340 338 337 338 339 339 339 339 337 336 335 333 332 329 339 349 349 349 350 352 351 352 346 336 319 299 265 235 221 213 196 180 169 167 163 151 142 138 139
333 335 335 335 335 335 335 338 339 339 339 339 339 338 338 336 334 337 345 350 349 350 353 354 355 1 1 7 11 358 328 270 221 196 184 171 165 167 169 160 146 137 134
330 330 331 332 332 332 332 336 338 338 338 339 338 338 339 338 335 344 354 347 350 353 354 357 1 5 7 12 24 33 37 34 17 38 133 136 134 141 149 153 145 146 140
326 326 327 328 329 329 330 333 336 335 335 336 335 337 337 336 338 342 349 348 353 357 359 3 9 11 16 14 23 30 34 39 41 47 55 52 58 40 108 153 163 154 126
322 323 325 325 324 325 328 330 332 333 331 332 333 336 336 337 339 340 344 346 356 1 5 10 20 23 26 27 29 35 37 38 40 45 52 50 49 40 35 63 107 101 88
322 322 323 322 321 322 324 326 332 332 329 330 332 336 337 338 340 340 347 352 4 6 11 22 32 35 34 35 34 37 37 33 36 44 48 47 45 46 41 52 99 127 111
325 322 321 322 323 323 321 325 328 329 330 330 332 337 340 342 343 348 2 3 10 9 14 30 43 44 40 40 38 38 39 34 35 38 40 40 42 41 41 37 32 84 101
323 321 322 325 326 323 324 325 324 326 329 331 333 338 344 349 351 358 11 10 3 7 20 36 46 49 45 42 42 41 41 41 43 45 45 43 44 43 42 42 42 49 68
323 324 327 328 328 327 328 327 327 328 329 332 335 340 348 352 356 2 11 13 12 11 29 43 50 52 49 46 43 38 39 40 43 47 48 44 42 44 47 51 52 54 54
327 329 330 329 330 331 332 332 332 330 328 327 330 338 345 350 356 5 13 20 32 37 55 64 57 52 48 44 40 39 37 36 40 45 46 44 42 43 47 55 60 60 56
330 331 332 332 332 335 337 337 334 329 325 325 337 342 342 347 4 14 16 25 36 42 42 46 50 52 49 43 40 39 38 38 39 41 42 41 41 44 43 39 48 54 60
333 334 334 335 338 342 344 344 342 340 340 349 354 344 342 351 21 32 32 31 37 48 47 45 41 40 39 38 38 38 37 36 38 35 36 38 39 40 40 37 45 60 63
337 339 339 341 345 347 346 347 351 353 355 1 0 354 349 6 36 41 40 40 41 43 46 45 41 38 36 33 32 33 34 34 33 34 35 36 36 36 39 41 46 54 60
341 341 340 344 347 347 346 344 343 347 357 6 5 360 1 14 41 47 44 43 44 44 46 43 39 34 30 28 27 28 29 29 26 31 33 30 30 33 36 38 41 50 55
346 345 346 346 348 348 348 347 345 345 349 359 4 3 3 10 28 41 34 31 37 38 36 34 31 27 23 20 17 17 16 17 20 21 26 26 23 25 31 33 36 35 41
350 350 348 349 351 353 354 354 353 353 357 359 359 3 4 1 9 21 14 12 15 18 18 17 15 12 9 6 3 2 2 5 10 5 13 16 14 16 22 23 27 28 24
349 352 356 354 356 357 358 358 358 359 1 3 2 359 346 338 341 345 345 345 346 351 354 356 357 354 350 346 342 339 338 343 349 345 351 352 350 352 356 354 356 355 355
344 347 355 358 360 358 358 358 359 360 2 1 360 355 4 360 342 333 327 325 327 330 333 336 338 339 334 329 322 317 312 315 319 317 311 304 297 293 297 298 295 290 295
340 346 352 356 359 359 358 355 355 356 358 358 354 352 353 346 334 325 321 319 320 317 317 316 316 321 321 314 307 304 300 297 296 289 281 273 265 262 261 259 258 261 261
339 344 349 351 355 356 356 353 352 351 350 349 346 343 339 333 323 315 311 311 310 305 305 303 301 304 307 296 284 279 281 284 283 280 273 266 257 253 250 248 247 250 252
340 343 345 345 347 350 350 349 346 342 338 336 335 332 326 317 307 300 296 295 295 295 295 294 292 293 295 292 284 275 269 271 273 265 255 253 256 257 254 250 250 251 250
341 342 343 343 343 342 340 340 338 334 328 323 320 317 312 307 300 294 289 286 285 284 286 287 286 286 286 286 283 280 278 278 276 271 257 245 246 250 255 257 254 254 248
341 341 342 342 343 340 337 332 327 323 316 311 307 303 300 297 294 291 287 282 281 281 281 280 278 279 280 280 278 278 281 284 284 275 262 241 240 245 247 249 250 248 248
Height
1531 1524 1517 1511 1504 1498 1491 1484 1478 1471 1464 1457 1451 1445 1440 1435 1429 1425 1420 1412 1404 1398 1394 1391 1389 1389 1388 1389 1390 1391 1393 1395 1396 1399 1401 1403 1406 1409 1412 1416 1419 1422 1426
1529 1522 1516 1509 1503 1496 1489 1482 1476 1469 1462 1456 1449 1443 1438 1432 1426 1422 1417 1410 1402 1396 1391 1387 1385 1383 1382 1381 1382 1383 1385 1387 1390 1392 1394 1398 1401 1404 1408 1412 1415 1419 1423
1527 1521 1515 1508 1502 1495 1488 1481 1474 1467 1461 1454 1448 1442 1436 1430 1424 1419 1415 1409 1402 1395 1390 1386 1382 1379 1377 1375 1375 1376 1377 1379 1381 1385 1388 1391 1394 1398 1403 1407 1412 1416 1421
1526 1520 1513 1507 1500 1493 1487 1480 1473 1467 1460 1453 1447 1441 1435 1429 1422 1418 1413 1407 1401 1395 1390 1385 1381 1378 1375 1372 1370 1370 1370 1372 1373 1377 1380 1384 1387 1392 1397 1402 1408 1414 1420
1524 1517 1511 1505 1498 1492 1485 1479 1472 1466 1459 1453 1446 1440 1434 1428 1422 1418 1412 1407 1401 1396 1390 1386 1381 1378 1374 1371 1368 1366 1365 1365 1366 1369 1373 1377 1380 1386 1391 1397 1403 1410 1418
1522 1516 1509 1503 1496 1490 1484 1478 1471 1464 1458 1451 1445 1439 1433 1427 1421 1417 1412 1407 1402 1397 1392 1387 1382 1378 1374 1371 1368 1365 1362 1361 1362 1364 1366 1371 1375 1380 1386 1393 1399 1406 1415
1520 1514 1507 1500 1494 1488 1482 1476 1469 1463 1457 1450 1444 1438 1433 1427 1421 1416 1412 1408 1404 1399 1394 1390 1385 1380 1376 1373 1369 1366 1363 1361 1361 1362 1363 1367 1370 1376 1383 1391 1397 1404 1410
1518 1511 1505 1498 1491 1485 1480 1474 1468 1462 1456 1450 1444 1438 1433 1427 1421 1416 1412 1409 1405 1401 1397 1393 1389 1384 1381 1377 1374 1370 1367 1364 1363 1363 1364 1366 1369 1375 1382 1388 1394 1401 1408
1516 1509 1502 1495 1489 1483 1478 1473 1467 1461 1455 1450 1444 1439 1433 1427 1422 1417 1412 1409 1407 1403 1399 1396 1393 1389 1386 1382 1379 1376 1372 1370 1368 1368 1368 1369 1372 1377 1383 1390 1396 1401 1406
1514 1507 1500 1493 1487 1481 1476 1471 1466 1461 1456 1450 1445 1439 1434 1429 1423 1418 1413 1411 1409 1406 1402 1400 1397 1394 1391 1387 1384 1381 1378 1376 1375 1374 1373 1374 1376 1380 1385 1390 1395 1400 1404
1513 1505 1498 1491 1485 1479 1474 1468 1463 1459 1455 1450 1445 1440 1435 1430 1425 1420 1416 1413 1411 1408 1406 1404 1401 1398 1395 1392 1389 1386 1385 1383 1382 1381 1380 1380 1382 1385 1388 1391 1395 1399 1404
1511 1504 1497 1490 1483 1477 1472 1467 1462 1458 1454 1450 1445 1441 1436 1432 1428 1423 1419 1415 1412 1411 1409 1407 1405 1402 1400 1397 1395 1393 1391 1389 1388 1387 1387 1387 1388 1390 1392 1394 1396 1399 1403
1509 1502 1495 1489 1483 1477 1472 1467 1462 1458 1454 1450 1446 1442 1438 1434 1430 1426 1423 1419 1415 1413 1411 1410 1408 1406 1404 1402 1400 1398 1396 1395 1394 1393 1393 1394 1395 1396 1397 1399 1401 1403 1405
1508 1501 1494 1488 1482 1477 1472 1467 1462 1457 1453 1449 1446 1443 1440 1436 1433 1429 1426 1422 1419 1416 1414 1413 1412 1410 1408 1407 1405 1403 1402 1401 1400 1399 1399 1400 1400 1401 1402 1403 1405 1407 1409
1507 1500 1494 1488 1483 1477 1472 1467 1462 1458 1454 1450 1447 1445 1442 1439 1437 1433 1430 1426 1424 1421 1420 1418 1417 1415 1413 1412 1410 1409 1407 1406 1405 1405 1405 1405 1405 1406 1406 1408 1409 1411 1413
1506 1500 1494 1489 1483 1477 1472 1467 1463 1459 1454 1450 1447 1445 1444 1442 1439 1436 1433 1430 1427 1425 1423 1422 1420 1419 1418 1416 1415 1414 1412 1411 1410 1410 1409 1409 1410 1410 1410 1411 1412 1414 1415
1508 1502 1496 1490 1484 1478 1472 1467 1462 1459 1455 1451 1447 1445 1445 1444 1442 1439 1437 1434 1432 1429 1427 1426 1424 1423 1421 1420 1419 1418 1416 1415 1414 1413 1413 1413 1413 1413 1413 1414 1415 1416 1418
1510 1504 1498 1492 1486 1479 1474 1469 1464 1459 1455 1452 1449 1446 1445 1445 1444 1442 1440 1438 1436 1433 1432 1430 1428 1426 1425 1423 1421 1420 1419 1418 1417 1416 1415 1415 1415 1415 1415 1416 1417 1418 1419
1512 1505 1500 1494 1488 1482 1476 1470 1465 1461 1457 1454 1450 1448 1447 1446 1445 1443 1442 1441 1439 1437 1435 1433 1431 1429 1427 1425 1423 1422 1421 1420 1418 1417 1417 1416 1416 1416 1417 1418 1419 1419 1421
1514 1508 1502 1496 1490 1484 1477 1472 1467 1463 1459 1456 1453 1450 1448 1447 1446 1445 1443 1442 1440 1439 1437 1435 1433 1431 1429 1426 1425 1423 1422 1421 1420 1419 1418 1418 1418 1418 1418 1419 1419 1421 1422
1516 1510 1504 1498 1492 1486 1480 1474 1470 1465 1462 1458 1455 1452 1450 1448 1446 1445 1444 1442 1441 1439 1437 1435 1434 1431 1429 1427 1425 1423 1422 1421 1421 1420 1419 1419 1419 1419 1419 1419 1420 1421 1422
1519 1512 1506 1500 1495 1489 1483 1478 1473 1468 1464 1460 1456 1453 1450 1448 1446 1445 1443 1441 1440 1438 1436 1435 1433 1431 1429 1427 1425 1423 1422 1421 1420 1420 1419 1419 1419 1419 1419 1419 1420 1420 1421
1521 1515 1509 1503 1497 1492 1486 1480 1475 1470 1466 1462 1458 1454 1451 1448 1446 1444 1441 1440 1438 1436 1434 1433 1431 1430 1428 1426 1424 1423 1421 1421 1420 1419 1419 1418 1418 1418 1418 1418 1418 1419 1419
1523 1517 1511 1505 1499 1494 1488 1482 1477 1472 1467 1463 1459 1455 1451 1448 1445 1442 1440 1437 1435 1433 1432 1430 1428 1427 1425 1424 1422 1421 1420 1419 1418 1418 1417 1417 1416 1416 1416 1415 1415 1415 1415
1524 1519 1513 1507 1501 1496 1490 1484 1479 1473 1468 1463 1459 1455 1451 1447 1444 1441 1438 1435 1432 1430 1428 1426 1425 1423 1422 1421 1420 1419 1418 1417 1416 1415 1414 1413 1412 1411 1411 1410 1410 1410 1410
1525 1520 1515 1509 1503 1497 1492 1486 1480 1474 1468 1463 1458 1454 1449 1445 1442 1438 1435 1432 1429 1427 1424 1422 1421 1419 1418 1417 1416 1416 1415 1414 1413 1412 1411 1409 1408 1407 1406 1406 1405 1405 1405